Content
SEND FEEDBACK

Daily
Averages
Monthly
Summary
Switzerland

GENEVA, SWITZERLAND


Home > Europe > Switzerland
Elevation: 1364 feet     Latitude: 46 15N     Longitude: 006 08E

WEATHER
 
SELECT A DAY
Number of Records: 305,383;   Date Range: 7/1/96 - 7/20/14
 
SHARE

PRINT THIS DATA

[ ← Previous Day ]
WEATHER ALMANAC - FEBRUARY 12, 2013
[ Next Day → ]
[ °C ]   °F
Weather ElementAverageHighLow
Temperature33.3 °F35.6 °F (11:50 am)30.2 °F (3:50 am)
Dewpoint31.5 °F33.8 °F (11:20 am)29 °F (11:00 pm)
Humidity92.1 %100 % (12:50 am)77 % (3:00 pm)
Barometer29.74 in29.98 in (11:00 pm)29.53 in (12:50 am)
Wind Speed2.8 mph10.4 mph (10:20 pm)
Weather ElementAverage
Visibility2.3 mi
Wind DirectionNNE (31.5 °)

Weather ElementTotal
Precipitation---
Heating Degree Days32.1 (Base 65)
Averaged from 61 records on February 12, 2013
WEATHER CONDITIONS BREAKOUT
WIND DIRECTION BREAKOUT
WEATHER BY HOUR - FEBRUARY 12, 2013
[ °C ]   °F
Local TimeTemperatureDewpointHumidityBarometerVisibilityWind DirectionWind SpeedGust SpeedPrecipitationEventsConditions
12:50 AM32.0 °F32.0 °F100 %29.53 in0.8 miCalmSnowLight Snow
1:00 AMCalm
1:20 AM32.0 °F32.0 °F100 %29.53 in1.0 miCalmSnowLight Snow
1:50 AM32.0 °F32.0 °F100 %29.53 in0.8 miCalmSnowLight Snow
2:50 AM32.0 °F32.0 °F100 %29.53 in0.9 miCalmSnowLight Snow
3:20 AM32.0 °F30.2 °F93 %29.53 in0.9 miCalmSnowLight Snow
3:50 AM30.2 °F30.2 °F100 %29.53 in0.7 miCalmFog-SnowLight Snow
4:20 AM30.2 °F30.2 °F100 %29.56 in0.9 miCalmFog-SnowLight Snow
4:50 AM30.2 °F30.2 °F100 %29.56 in1.1 miCalmSnowLight Snow
5:20 AM30.2 °F30.2 °F100 %29.56 in0.7 miCalmSnowLight Snow
5:50 AM32.0 °F30.2 °F93 %29.56 in0.7 miCalmSnowLight Snow
6:20 AM32.0 °F30.2 °F93 %29.56 in0.8 miCalmSnowLight Snow
6:50 AM32.0 °F32.0 °F100 %29.59 in0.7 miCalmSnowLight Snow
7:00 AM32.0 °F31.0 °F92 %29.66 in1.0 miWest (280°)2.3 mphSnowLight Snow
7:20 AM32.0 °F32.0 °F100 %29.59 in0.7 miCalmSnowLight Snow
7:50 AM32.0 °F32.0 °F100 %29.59 in0.8 miCalmSnowLight Snow
8:00 AM32.0 °F31.0 °F95 %29.68 inWNW (290°)1.2 mph
8:20 AM32.0 °F32.0 °F100 %29.62 in0.8 miCalmSnowLight Snow
8:50 AM32.0 °F32.0 °F100 %29.62 in0.8 miCalmSnowLight Snow
9:00 AM32.0 °F31.0 °F95 %29.71 inWest (280°)2.3 mph
9:20 AM32.0 °F32.0 °F100 %29.65 in0.9 miCalmSnowLight Snow
9:50 AM32.0 °F32.0 °F100 %29.65 in0.7 miCalmSnowLight Snow
10:20 AM33.8 °F32.0 °F93 %29.68 in0.6 miCalmSnowSnow
10:50 AM33.8 °F32.0 °F93 %29.68 in0.7 miNE (40°)3.5 mphSnowLight Snow
11:00 AM34.0 °F32.0 °F88 %29.76 inNE (40°)6.9 mph
11:20 AM33.8 °F33.8 °F100 %29.71 in1.7 miNE (40°)5.8 mphSnowLight Snow
11:50 AM35.6 °F33.8 °F93 %29.71 in3.1 miNE (40°)5.8 mphRain-SnowLight Snow
12:00 PM35.0 °F32.0 °F83 %29.78 inNE (40°)6.9 mph
12:20 PM35.6 °F32.0 °F87 %29.71 in3.1 miNE (40°)4.6 mphMostly Cloudy
12:50 PM35.6 °F32.0 °F87 %29.74 in3.7 miVariable3.5 mphMostly Cloudy
1:00 PM35.0 °F31.0 °F80 %29.79 in3.0 miNNE (30°)3.5 mphLight Ice Pellets
1:20 PM35.6 °F32.0 °F87 %29.74 in3.7 miVariable2.3 mphRain-SnowLight Rain
1:50 PM35.6 °F32.0 °F87 %29.74 in3.7 miVariable3.5 mphRain-SnowLight Rain
2:00 PM35.0 °F31.0 °F79 %29.80 inNNE (20°)2.3 mph
2:20 PM35.6 °F32.0 °F87 %29.74 in3.7 miVariable1.2 mphMostly Cloudy
2:50 PM35.6 °F32.0 °F87 %29.74 in4.3 miVariable1.2 mphMostly Cloudy
3:00 PM35.0 °F30.0 °F77 %29.82 inNNE (30°)1.2 mph
3:20 PM35.6 °F32.0 °F87 %29.77 in4.3 miVariable1.2 mphMostly Cloudy
3:50 PM35.6 °F32.0 °F87 %29.77 in6.2 miNE (40°)2.3 mphOvercast
4:20 PM35.6 °F32.0 °F87 %29.80 in5.0 miVariable2.3 mphRain-SnowLight Rain
4:50 PM33.8 °F32.0 °F93 %29.80 in3.7 miVariable2.3 mphOvercast
5:00 PM35.0 °F31.0 °F82 %29.86 inNE (50°)3.5 mph
5:20 PM33.8 °F32.0 °F93 %29.80 in3.7 miENE (70°)3.5 mphOvercast
5:50 PM33.8 °F32.0 °F93 %29.80 in3.7 miNE (40°)2.3 mphOvercast
6:00 PM34.0 °F31.0 °F86 %29.88 inNNE (20°)2.3 mph
6:20 PM33.8 °F32.0 °F93 %29.83 in3.7 miNNE (20°)1.2 mphRain-SnowLight Rain
6:50 PM33.8 °F32.0 °F93 %29.83 in3.1 miNNE (20°)2.3 mphOvercast
7:00 PM34.0 °F31.0 °F86 %29.90 in4.0 miNorth (10°)3.5 mphMist
7:20 PM33.8 °F32.0 °F93 %29.86 in2.8 miVariable2.3 mphOvercast
7:50 PM33.8 °F32.0 °F93 %29.86 in2.5 miNNE (30°)2.3 mphRain-SnowLight Rain
8:00 PM34.0 °F31.0 °F86 %29.92 inNorth (10°)3.5 mph
8:20 PM33.8 °F32.0 °F93 %29.86 in2.5 miNNE (30°)3.5 mphOvercast
8:50 PM33.8 °F32.0 °F93 %29.86 inNE (50°)4.6 mphMostly Cloudy
9:00 PM33.0 °F31.0 °F87 %29.94 inNE (40°)6.9 mph
9:20 PM33.8 °F32.0 °F93 %29.89 inNE (50°)5.8 mphMostly Cloudy
9:50 PM33.8 °F30.2 °F87 %29.89 inNE (50°)6.9 mphMostly Cloudy
10:20 PM32.0 °F30.2 °F93 %29.89 in3.1 miNE (50°)10.4 mphMostly Cloudy
10:50 PM32.0 °F30.2 °F93 %29.92 in3.1 miNE (40°)9.2 mphMostly Cloudy
11:00 PM33.0 °F29.0 °F78 %29.98 inNE (40°)10.4 mph
11:20 PM32.0 °F30.2 °F93 %29.92 in3.1 miNE (40°)10.4 mphMostly Cloudy
11:50 PM32.0 °F30.2 °F93 %29.92 in3.7 miNNE (20°)8.1 mphMostly Cloudy
Hourly data recorded from LSGG, located miles away from Geneva, Switzerland







STORIES FROM OUR PARTNERS